Other Public Products
Issued by NWS Grand Forks, ND

Home | Current Version | Previous Version | Graphics & Text | Print | Product List | Glossary On
Versions: 1 2 3 4 5 6 7 8 9 10 11 12 13 14 15 16 17 18 19 20 21 22 23 24 25 26 27 28 29 30 31 32 33 34 35 36 37 38 39 40 41 42 43 44 45 46 47 48 49 50
000
FPUS83 KFGF 010910
OPUFGF
PRAIRIE TO PINES WEATHER ROUNDUP
NATIONAL WEATHER SERVICE EASTERN NORTH DAKOTA/GRAND FORKS ND
400 AM CDT SUN MAY 01 2016

 **SATELLITE DATA USED TO AUGMENT SKY COVER AT AUTOMATED STATIONS**
 *****  WEATHER ACROSS EASTERN NORTH DAKOTA  *****

CITY           SKY/WX    TMP DP  RH WIND       PRES   REMARKS
GRAND FORKS    CLEAR     32  25  75 NW6       30.28R
GRAND FORKS AF CLEAR     33  26  73 N6        30.28R
GRAND CITY NWS NOT AVBL
BUXTON         NOT AVBL
DEVILS LAKE    CLEAR     34  27  75 N7        30.30R
FARGO          CLEAR     38  27  64 CALM      30.25R
WAHPETON ARPT  SUNNY     41  28  60 NE8       30.25R
$$

 *****  WEATHER ACROSS CENTRAL AND WESTERN NORTH DAKOTA  *****

CITY           SKY/WX    TMP DP  RH WIND       PRES   REMARKS
JAMESTOWN      CLEAR     33  27  78 N7        30.25R
BISMARCK       CLEAR     37  31  78 CALM      30.30R
MINOT          CLEAR     39  28  64 SW7       30.31S
MINOT AFB      CLEAR     29  24  83 NW8       30.31R WCI  21
GARRISON         N/A     32  27  81 NW3       30.31R
WILLISTON      CLEAR     35  28  75 N5        30.33R
DICKINSON      CLEAR     31  25  78 NW7       30.29R WCI  24
HETTINGER      CLEAR     26  22  84 NW5       30.30S WCI  20
$$

 *****  OTHER OBSERVATIONS NORTHEAST NORTH DAKOTA  *****

CITY           SKY/WX    TMP DP  RH WIND       PRES   REMARKS
WALHALLA       FAIR      32  32 100 CALM      30.31S
LANGDON        FAIR      30  23  74 N6        30.30S WCI  24
CAVALIER       FAIR      39  28  65 N7        30.30S
GRAFTON        FAIR      37  28  70 N6        30.31R
CANDO          FAIR      32  28  86 N8        30.33S WCI  25
FORT TOTTEN      N/A     38  28  66 CALM      29.95S
ROLLA          FAIR      32  25  74 NW10      30.33R WCI  24
RUGBY          FAIR      34  28  80 CALM      30.31R
 ***** THE ABOVE OBSERVATIONS ARE NON NWS ARE NOT QUALITY
        CONTROLLED AND MAY MIS-REPORT RAIN FOR SNOW...
$$

 *****  OTHER OBSERVATIONS SOUTHEAST NORTH DAKOTA *****

CITY           SKY/WX    TMP DP  RH WIND       PRES   REMARKS
COOPERSTOWN    NOT AVBL
VALLEY CITY    FAIR      41  27  56 NE3       30.27R
OAKES            N/A    N/A N/A N/A MISG        N/A
GWINNER        FAIR      36  30  80 N7        30.24R
SHEYENNE NWR     N/A     35  27  73 N3        29.95S
BUFFALO        NOT AVBL
WYNDMERE       NOT AVBL
 ***** THE ABOVE OBSERVATIONS ARE NON NWS ARE NOT QUALITY
       CONTROLLED AND MAY MIS-REPORT RAIN FOR SNOW...
$$

  *****  WEATHER ACROSS NORTHERN MINNESOTA  *****

CITY           SKY/WX    TMP DP  RH WIND       PRES   REMARKS
FLAG ISLAND    CLEAR     43  36  75 CALM      30.28S
WARROAD        CLEAR     39  32  75 N6        30.29R
ROSEAU         CLEAR     36  28  75 CALM      30.29R
HALLOCK        CLEAR     36  25  64 N3        30.29R
THF RVR FALLS  CLEAR     39  25  56 NE7       30.28R
HALSTAD        NOT AVBL
FOSSTON        CLEAR     30  25  80 CALM      30.27R
BAUDETTE       CLEAR     35  26  69 E3        30.27R
WASKISH        CLEAR     36  30  80 SE5       30.27R
CROOKSTON      CLEAR     39  28  65 E6        30.28R
$$
  *****  WEATHER ACROSS CENTRAL AND WEST MINNESOTA  *****

CITY           SKY/WX    TMP DP  RH WIND       PRES   REMARKS
BEMIDJI        CLEAR     28  26  91 CALM      30.26R
PARK RAPIDS    CLEAR     38  28  67 N3        30.23S
WADENA         CLEAR     34  27  75 N7        30.22S
DETROIT LAKES  CLEAR     37  32  81 E3        30.26R
MOORHEAD       CLEAR     39  30  70 SE5       30.26R
FERGUS FALLS   CLEAR     37  28  70 NE5       30.22S
ELBOW LAKE     FAIR      38  31  74 NE8       30.21S
MORRIS MN      CLOUDY    37  28  70 NE7       30.19R
STAPLES        CLEAR     36  27  69 N5        30.21S
WHEATON        CLEAR     37  30  75 N6        30.24R
$$
  *****  WEATHER ELSEWHERE ACROSS MINNESOTA  *****

CITY           SKY/WX    TMP DP  RH WIND       PRES   REMARKS
DULUTH         CLEAR     33  27  78 NE7       30.21S
INTRNTL FALLS  CLEAR     34  27  75 NE6       30.27S
ELY            CLEAR     28  27  93 CALM      30.25R
CLOQUET        CLEAR     36  28  75 NE6       30.21S
BRAINERD       CLEAR     36  27  69 NE3       30.22R
HIBBING        CLEAR     24  23  96 CALM      30.24R
ALEXANDRIA     CLOUDY    37  27  67 NE10      30.20R
SAINT CLOUD    CLOUDY    39  29  67 N6        30.17R
MINNEAPOLIS    CLOUDY    43  32  65 N7        30.13S
$$

  *****  WEATHER ACROSS SOUTH DAKOTA  *****

CITY           SKY/WX    TMP DP  RH WIND       PRES   REMARKS
SIOUX FALLS    LGT RAIN  42  39  89 NE12      30.10R
BROOKINGS      CLOUDY    39  32  76 NE8       30.13R
WATERTOWN      CLOUDY    37  28  70 NE10      30.16R
HURON          CLOUDY    38  31  76 NE7       30.17R
SISSETON         N/A     34  28  79 NE3       30.22R
ABERDEEN       CLEAR     35  30  82 N5        30.22R
MITCHELL       CLOUDY    43  39  86 N9        30.14R
PIERRE         CLOUDY    36  31  82 NE8       30.19R
MOBRIDGE       CLEAR     41  30  65 NE12      30.21R
RAPID CITY     CLEAR     33  29  85 N12       30.25R WCI  24
$$

  *****  SOME WEATHER IN NEARBY STATES *****

CITY           SKY/WX    TMP DP  RH WIND       PRES   REMARKS
GLASGOW MT     CLOUDY    40  30  67 NE3       30.32S
GREAT FALLS MT CLEAR     33  29  85 W3        30.32F
CHEYENNE WY    CLOUDY    31  28  89 N15G23    30.21S WCI  20
SCOTTSBLUFF NE LGT RAIN  38  34  85 NW5       30.23R
OMAHA NE       LGT RAIN  46  43  89 NE8       29.93R
DES MOINES IA  CLOUDY    46  42  86 E9        29.95R
DAVENPORT IA   CLOUDY    45  44  97 NE10      29.93S FOG
CHICAGO IL     DRIZZLE   45  44  97 NE15      29.92R FOG
EAU CLAIRE WI  CLOUDY    45  30  55 NE10      30.10R
LA CROSSE WI   CLOUDY    47  37  68 NE14      30.06R
$$

  *****  SOME NATIONAL WEATHER *****

CITY           SKY/WX    TMP DP  RH WIND       PRES   REMARKS
LA GUARDIA NY  CLOUDY    50  35  56 SE5       30.19F
RALEIGH NC     CLOUDY    60  56  86 SE5       30.12S
ATLANTA GA     CLOUDY    67  65  93 SE3       29.98S FOG
NEW ORLEANS LA CLOUDY    72  68  87 E3        29.85S
OKLAHOMA CITY  PTCLDY    50  40  68 NW10      30.00R
ALBUQUERQUE NM CLOUDY    43  32  65 E32G46    29.92S
SALT LAKE CITY CLOUDY    51  24  34 E20G29    30.01F
LOS ANGELES CA PTCLDY    58  51  78 CALM      29.85F
BOISE ID       CLEAR     44  35  70 S3        30.09F
SEATTLE WA     CLEAR     53  41  63 N5        30.27F
$$

*** WEATHER ACROSS MANITOBA...SASKATCHEWAN AND ONTARIO ***
                ***ONTARIO***

CITY           SKY/WX    TMP DP  RH WIND       PRES   REMARKS
GERALDTON      MOCLDY    36  32  87 E7        30.29F
THUNDER BAY    CLEAR     27  27 100 SW3       30.27R
SIOUX LOOKOUT  CLEAR     27  27 100 CALM      30.30S
TORONTO        LGT RAIN  46  43  87 NE9       30.01F
BIG TROUT LK   CLEAR     28  25  86 VRB2      30.31F
PICKLE LAKE    NOT AVBL
DRYDEN         CLEAR     34  30  86 E5        30.29R
KENORA         CLEAR     39  27  60 E7        30.29R
$$
                *** MANITOBA***

CITY           SKY/WX    TMP DP  RH WIND       PRES   REMARKS
BRANDON        CLEAR     32  23  69 N6        30.33S
DAUPHIN        CLEAR     34  27  75 W9        30.33S
ISLAND LAKE    PTCLDY    34  28  80 CALM      30.28F
PILOT MOUND      N/A     30  23  74 N3          N/A
THE PAS        CLEAR     45  30  57 S7        30.25F
THOMPSON       NOT AVBL
WINNIPEG       CLEAR     37  28  70 N2        30.31F
LYNN LAKE      MOCLDY    43  25  49 S7        30.11F
CHURCHILL      CLOUDY    30  27  86 SE15G23   30.21F WCI  19
$$
                ***SASKATCHEWAN***

CITY           SKY/WX    TMP DP  RH WIND       PRES   REMARKS
ESTEVAN        NOT AVBL
KINDERSLEY     PTCLDY    39  32  75 S7        30.28F
LLOYDMINSTER   CLEAR     43  34  70 SW8       30.23S
PRINCE ALBERT  PTCLDY    46  30  53 SW7       30.24F
REGINA         CLEAR     36  23  60 SE9       30.33S
YORKTON        CLEAR     41  30  65 S7        30.33S
N. BATTLEFORD  CLEAR     41  34  75 S3        30.27F   C1F1C2F2C3F3C4F4C5F5C6F6C7F7C8F8C9F9CaFaCbFbCcFcCdFdCe!



USA.gov is the U.S. government's official web portal to all federal, state and local government web resources and services.